GW6561 Weather Reports


time (UTC)temp
C
wind
direction
speed
KPH
gust
KPH
rain 1hr
cm
rain 24hr
cm
rain mn
cm
humidity
%
barometer
mb
20260504100343 3 193 9.7 11.3 0.00 0.00 0.00 81 1016.3
20260504081737 4 205 0.0 0.0 0.00 0.00 0.00 77 1016.5
20260504081233 4 218 14.5 14.5 0.00 0.00 0.00 75 1016.4
20260504080730 5 49 14.5 14.5 0.00 0.00 0.00 76 1016.5
20260504080226 5 261 9.7 9.7 0.00 0.00 0.00 77 1016.6
20260504070154 5 171 0.0 0.0 0.00 0.00 0.00 79 1016.5
20260504060119 5 267 0.0 0.0 0.00 0.00 0.00 70 1016.7
20260504050548 6 220 0.0 0.0 0.00 0.00 0.00 71 1016.6
20260504045541 6 265 0.0 9.7 0.00 0.00 0.00 64 1016.7
20260504045037 6 240 0.0 0.0 0.00 0.00 0.00 68 1016.8
20260504044535 6 245 0.0 0.0 0.00 0.00 0.00 68 1016.7
20260504044031 6 230 0.0 0.0 0.00 0.00 0.00 70 1016.5
20260504043528 7 211 11.3 17.7 0.00 0.00 0.00 71 1016.6
20260504043026 7 277 12.9 17.7 0.00 0.00 0.00 62 1016.5
20260504042523 6 284 12.9 14.5 0.00 0.00 0.00 64 1016.5
20260504042020 6 293 0.0 9.7 0.00 0.00 0.00 70 1016.6
20260504041515 6 224 0.0 0.0 0.00 0.00 0.00 72 1016.9
20260504041011 6 224 0.0 0.0 0.00 0.00 0.00 72 1016.7
20260504040509 6 200 9.7 14.5 0.00 0.00 0.00 69 1016.5
20260504040006 6 254 0.0 0.0 0.00 0.00 0.00 65 1016.4
20260504035503 6 224 0.0 9.7 0.00 0.00 0.00 71 1016.4
20260504034959 6 230 0.0 0.0 0.00 0.00 0.00 69 1016.3
20260504034457 6 230 0.0 0.0 0.00 0.00 0.00 69 1016.4
20260504033954 6 267 0.0 0.0 0.00 0.00 0.00 69 1016.3
20260504033451 6 304 0.0 0.0 0.00 0.00 0.00 70 1016.3
20260504032948 6 226 0.0 11.3 0.00 0.00 0.00 70 1016.4
20260504032445 6 264 0.0 0.0 0.00 0.00 0.00 67 1016.3
20260504031942 7 290 0.0 12.9 0.00 0.00 0.00 71 1016.3
20260504031439 7 242 0.0 9.7 0.00 0.00 0.00 66 1016.2
20260504030935 7 277 0.0 0.0 0.00 0.00 0.00 64 1016.1
20260504030433 6 220 0.0 0.0 0.00 0.00 0.00 69 1016.0
20260504025928 7 220 0.0 0.0 0.00 0.00 0.00 74 1016.1
20260504025426 7 233 9.7 11.3 0.00 0.00 0.00 71 1015.9
20260504024923 7 167 0.0 0.0 0.00 0.00 0.00 66 1016.1
20260504024420 7 233 0.0 0.0 0.00 0.00 0.00 67 1015.9
20260504023917 7 233 0.0 0.0 0.00 0.00 0.00 72 1016.2
20260504023413 7 233 0.0 0.0 0.00 0.00 0.00 71 1016.1
20260504022908 7 233 0.0 0.0 0.00 0.00 0.00 68 1016.1
20260504022405 7 233 0.0 0.0 0.00 0.00 0.00 66 1016.3
20260504021902 8 325 0.0 0.0 0.00 0.00 0.00 67 1016.2
20260504021359 8 245 0.0 0.0 0.00 0.00 0.00 59 1016.1
20260504020856 8 254 0.0 11.3 0.00 0.00 0.00 59 1016.2
20260504020353 8 250 0.0 0.0 0.00 0.00 0.00 62 1016.3
20260504015849 8 250 0.0 0.0 0.00 0.00 0.00 64 1016.3
20260504015345 8 240 0.0 0.0 0.00 0.00 0.00 62 1016.2
20260504014841 8 348 0.0 0.0 0.00 0.00 0.00 62 1016.0
20260504014337 8 254 0.0 9.7 0.00 0.00 0.00 63 1016.2
20260504013835 8 250 0.0 0.0 0.00 0.00 0.00 55 1016.0
20260504013333 8 249 0.0 9.7 0.00 0.00 0.00 59 1015.8
20260504012830 8 245 0.0 12.9 0.00 0.00 0.00 56 1016.0
20260504012327 8 264 0.0 0.0 0.00 0.00 0.00 54 1016.0
20260504011825 8 223 0.0 0.0 0.00 0.00 0.00 52 1015.8
20260504011321 9 250 0.0 9.7 0.00 0.00 0.00 52 1015.8
20260504010817 9 220 0.0 9.7 0.00 0.00 0.00 50 1015.7
20260504010312 9 244 9.7 14.5 0.00 0.00 0.00 50 1015.9
20260504005809 9 270 0.0 11.3 0.00 0.00 0.00 50 1015.8
20260504005306 9 245 0.0 9.7 0.00 0.00 0.00 51 1015.7
20260504004804 9 241 9.7 16.1 0.00 0.00 0.00 50 1015.7
20260504004301 10 236 11.3 11.3 0.00 0.00 0.00 49 1015.6
20260504003757 10 250 0.0 11.3 0.00 0.00 0.00 48 1015.6
20260504003255 10 238 0.0 11.3 0.00 0.00 0.00 49 1015.4
20260504002751 10 236 0.0 11.3 0.00 0.00 0.00 48 1015.6
20260504002248 10 233 0.0 11.3 0.00 0.00 0.00 48 1015.4
20260504001746 11 230 0.0 11.3 0.00 0.00 0.00 47 1015.3
20260504001243 11 239 0.0 0.0 0.00 0.00 0.00 46 1015.1
20260504000739 11 232 0.0 9.7 0.00 0.00 0.00 46 1015.2
20260504000236 11 231 0.0 12.9 0.00 0.00 0.00 47 1015.1
20260503235735 11 239 0.0 11.3 0.00 0.00 0.00 46 1015.0
20260503235231 12 253 12.9 12.9 0.00 0.00 0.00 45 1015.0
20260503234729 12 238 0.0 12.9 0.00 0.00 0.00 44 1014.9
20260503234227 12 229 11.3 14.5 0.00 0.00 0.00 46 1015.0
20260503233724 12 269 0.0 9.7 0.00 0.00 0.00 43 1014.9
20260503233219 13 156 0.0 14.5 0.00 0.00 0.00 43 1014.9
20260503232716 13 245 0.0 14.5 0.00 0.00 0.00 42 1015.0
20260503232213 13 264 12.9 17.7 0.00 0.00 0.00 41 1015.0
20260503231712 13 224 12.9 20.9 0.00 0.00 0.00 40 1014.9
20260503231208 13 265 20.9 25.7 0.00 0.00 0.00 39 1014.8
20260503230704 13 264 12.9 14.5 0.00 0.00 0.00 40 1015.1
20260503230202 13 282 0.0 17.7 0.00 0.00 0.00 40 1014.8
20260503225659 14 270 11.3 17.7 0.00 0.00 0.00 40 1014.7
20260503225159 14 275 11.3 16.1 0.00 0.00 0.00 38 1014.8
20260503224657 14 262 14.5 20.9 0.00 0.00 0.00 39 1014.7
20260503224154 14 227 0.0 19.3 0.00 0.00 0.00 38 1014.9
20260503223652 14 266 17.7 30.6 0.00 0.00 0.00 36 1014.8
20260503223149 14 263 11.3 19.3 0.00 0.00 0.00 38 1014.6
20260503222646 14 203 14.5 17.7 0.00 0.00 0.00 40 1014.6
20260503222143 14 278 16.1 30.6 0.00 0.00 0.00 35 1014.7
20260503221642 15 285 19.3 20.9 0.00 0.00 0.00 38 1014.8
20260503221139 15 290 9.7 24.1 0.00 0.00 0.00 35 1014.8
20260503220635 15 264 17.7 27.4 0.00 0.00 0.00 37 1014.7
20260503220132 15 256 16.1 25.7 0.00 0.00 0.00 36 1014.6
20260503215630 15 279 14.5 20.9 0.00 0.00 0.00 36 1015.0
20260503215126 15 299 14.5 27.4 0.00 0.00 0.00 35 1014.9
20260503214625 15 292 17.7 30.6 0.00 0.00 0.00 36 1014.7
20260503214120 15 270 11.3 29.0 0.00 0.00 0.00 35 1014.9
20260503213620 15 280 14.5 32.2 0.00 0.00 0.00 33 1014.7
20260503213116 15 260 14.5 33.8 0.00 0.00 0.00 36 1014.8
20260503212613 15 310 0.0 35.4 0.00 0.00 0.00 34 1014.6
20260503212111 15 266 17.7 35.4 0.00 0.00 0.00 32 1014.6
20260503211608 15 273 20.9 33.8 0.00 0.00 0.00 34 1014.6
20260503211103 15 311 17.7 30.6 0.00 0.00 0.00 37 1014.6
20260503210600 15 270 27.4 30.6 0.00 0.00 0.00 35 1014.6
20260503210056 15 265 16.1 25.7 0.00 0.00 0.00 34 1014.6
20260503205552 15 287 27.4 32.2 0.00 0.00 0.00 34 1014.6
20260503205049 15 274 16.1 32.2 0.00 0.00 0.00 33 1014.6
20260503204546 15 307 0.0 32.2 0.00 0.00 0.00 34 1014.6
20260503204043 15 258 12.9 20.9 0.00 0.00 0.00 37 1014.6
20260503203540 15 277 9.7 29.0 0.00 0.00 0.00 36 1014.9
20260503203037 15 23 11.3 29.0 0.00 0.00 0.00 36 1014.8
20260503202535 15 285 11.3 41.8 0.00 0.00 0.00 33 1014.9
20260503202033 15 290 9.7 35.4 0.00 0.00 0.00 34 1014.7
20260503201531 15 299 37.0 51.5 0.00 0.00 0.00 31 1014.8
20260503201028 15 268 12.9 29.0 0.00 0.00 0.00 33 1014.9
20260503200524 15 270 0.0 24.1 0.00 0.00 0.00 38 1014.9
20260503200021 15 287 19.3 32.2 0.00 0.00 0.00 33 1015.1
20260503195518 15 275 20.9 37.0 0.00 0.00 0.00 35 1015.1
20260503195015 15 175 0.0 32.2 0.00 0.00 0.00 36 1015.0
20260503194512 14 293 9.7 27.4 0.00 0.00 0.00 35 1015.0
20260503194011 15 275 9.7 33.8 0.00 0.00 0.00 35 1015.4
20260503193508 15 275 30.6 40.2 0.00 0.00 0.00 32 1015.3
20260503193004 14 290 29.0 29.0 0.00 0.00 0.00 34 1015.4
20260503192500 14 293 11.3 40.2 0.00 0.00 0.00 34 1015.5
20260503191955 15 269 19.3 27.4 0.00 0.00 0.00 32 1015.5
20260503191453 15 278 19.3 32.2 0.00 0.00 0.00 36 1015.5
20260503190949 14 265 12.9 32.2 0.00 0.00 0.00 35 1015.5
20260503190447 14 166 12.9 43.5 0.00 0.00 0.00 34 1015.9
20260503185944 14 265 27.4 43.5 0.00 0.00 0.00 33 1015.6
20260503185440 15 277 24.1 37.0 0.00 0.00 0.00 32 1015.7
20260503184940 14 277 9.7 32.2 0.00 0.00 0.00 37 1015.7
20260503184436 15 269 25.7 45.1 0.00 0.00 0.00 36 1015.9
20260503183933 15 172 9.7 41.8 0.00 0.00 0.00 39 1015.9
20260503183429 14 299 29.0 33.8 0.00 0.00 0.00 33 1016.1
20260503182926 15 274 14.5 37.0 0.00 0.00 0.00 35 1016.2
20260503182425 15 298 33.8 35.4 0.00 0.00 0.00 33 1016.0
20260503181922 16 270 12.9 33.8 0.00 0.00 0.00 32 1016.1
20260503181419 15 260 17.7 33.8 0.00 0.00 0.00 40 1015.9
20260503180915 15 259 25.7 32.2 0.00 0.00 0.00 36 1016.1
20260503180414 16 276 14.5 37.0 0.00 0.00 0.00 38 1016.2
20260503175910 15 21 19.3 32.2 0.00 0.00 0.00 38 1016.1
20260503175409 14 20 9.7 35.4 0.00 0.00 0.00 40 1016.2
20260503174904 15 287 27.4 48.3 0.00 0.00 0.00 32 1016.2
20260503174403 15 214 12.9 54.7 0.00 0.00 0.00 37 1016.2
20260503173902 14 293 19.3 35.4 0.00 0.00 0.00 34 1016.2
20260503173359 14 277 27.4 45.1 0.00 0.00 0.00 39 1016.4
20260503172856 15 278 30.6 41.8 0.00 0.00 0.00 35 1016.3
20260503172353 13 278 29.0 41.8 0.00 0.00 0.00 38 1016.2
20260503171849 13 255 30.6 33.8 0.00 0.00 0.00 43 1016.4
20260503171346 13 282 30.6 41.8 0.00 0.00 0.00 36 1016.5
20260503170844 13 289 19.3 40.2 0.00 0.00 0.00 37 1016.5
20260503170340 13 270 17.7 35.4 0.00 0.00 0.00 37 1016.6
20260503150732 11 171 12.9 46.7 0.00 0.00 0.00 40 1017.3
20260503150228 11 302 35.4 51.5 0.00 0.00 0.00 38 1017.2
20260503140153 9 236 20.9 45.1 0.00 0.00 0.00 45 1017.6
20260503131122 8 170 16.1 70.8 0.00 0.00 0.00 51 1017.6
20260503130620 8 274 20.9 46.7 0.00 0.00 0.00 51 1017.6
20260503130117 8 194 12.9 35.4 0.00 0.00 0.00 52 1017.6
20260503110510 5 285 14.5 25.7 0.00 0.00 0.00 62 1016.5